Two Harbors, MN

7:59 AM CDT on March 30, 2017 (GMT -0500)
Helgeson

Weather History for KTWM - October, 2013

Change the Weather History Date:

Thursday, October 31, 2013

  Actual Average Record
Temperature  
Mean Temperature 44 °F -  
Max Temperature 46 °F 48 °F 66 °F (1952)
Min Temperature 39 °F 34 °F 10 °F (1996)
Degree Days  
Heating Degree Days 22    
Moisture  
Dew Point 38 °F    
Average Humidity 82    
Maximum Humidity 87    
Minimum Humidity 81    
Precipitation  
Precipitation 0.02 in - - ()
Sea Level Pressure  
Sea Level Pressure 29.43 in    
Wind  
Wind Speed 1 mph (NNW)    
Max Wind Speed 12 mph    
Max Gust Speed 20 mph    
Visibility 6 miles    
Events      
Averages and records for this station are not official NWS values.
T = Trace of Precipitation, MM = Missing Value Source: NWS Daily Summary

Daily Weather History Graph

Daily Weather History Graph

Search for Another Location

Airport or City:

Trip Planner

Search our weather history database for the weather conditions in past years. The results will help you decide how hot, cold, wet, or windy it might be!

Date:

Astronomy

Oct. 31, 2013 Rise Set
Actual Time 7:48 AM CDT 5:51 PM CDT
Civil Twilight 7:16 AM CDT 6:23 PM CDT
Nautical Twilight 6:40 AM CDT 6:59 PM CDT
Astronomical Twilight 6:05 AM CDT 7:34 PM CDT
Moon 4:27 AM CDT (10/31) 4:19 PM CDT (10/31)
Length of Visible Light 11h 06m
Length of Day
10h 03m
Waning Crescent, 10% of the Moon is Illuminated
Oct 31
Waning Crescent
Nov 3
New
Nov 9
First Quarter
Nov 17
Full
Nov 25
Last Quarter

Hourly Weather History & Observations

Time (CDT) Temp. Windchill Dew Point Humidity Pressure Visibility Wind Dir Wind Speed Gust Speed Precip Events Conditions
12:13 AM 41.0 °F - 35.6 °F 81% 29.65 in 1.0 mi Calm Calm - N/A   Haze
12:33 AM 41.0 °F - 35.6 °F 81% 29.64 in 0.5 mi Calm Calm - N/A   Haze
12:53 AM 41.0 °F - 35.6 °F 81% 29.63 in 0.5 mi Calm Calm - N/A   Haze
1:14 AM 41.0 °F - 35.6 °F 81% 29.62 in 0.5 mi Calm Calm - N/A   Haze
1:33 AM 41.0 °F - 35.6 °F 81% 29.62 in 0.2 mi Calm Calm - N/A   Haze
1:53 AM 41.0 °F - 35.6 °F 81% 29.61 in 0.2 mi Calm Calm - N/A   Haze
2:14 AM 41.0 °F - 35.6 °F 81% 29.60 in 0.2 mi Calm Calm - N/A   Haze
2:33 AM 41.0 °F - 35.6 °F 81% 29.59 in 0.5 mi Calm Calm - N/A   Haze
2:53 AM 41.0 °F - 35.6 °F 81% 29.59 in 0.5 mi Calm Calm - N/A   Haze
3:14 AM 41.0 °F - 35.6 °F 81% 29.59 in 0.5 mi Calm Calm - N/A   Haze
3:33 AM 41.0 °F - 35.6 °F 81% 29.58 in 1.0 mi Calm Calm - N/A   Haze
3:53 AM 41.0 °F - 37.4 °F 87% 29.57 in 2.5 mi Calm Calm - N/A   Overcast
4:14 AM 41.0 °F - 37.4 °F 87% 29.56 in 1.2 mi Calm Calm - N/A   Overcast
4:33 AM 41.0 °F - 37.4 °F 87% 29.54 in 1.0 mi Calm Calm - N/A   Overcast
4:53 AM 41.0 °F - 37.4 °F 87% 29.54 in 1.0 mi Calm Calm - N/A   Overcast
5:13 AM 41.0 °F - 37.4 °F 87% 29.53 in 0.8 mi Calm Calm - N/A   Overcast
5:33 AM 42.8 °F - 37.4 °F 81% 29.52 in 1.0 mi Calm Calm - N/A   Haze
5:53 AM 42.8 °F - 37.4 °F 81% 29.52 in 2.5 mi Calm Calm - N/A   Haze
6:13 AM 42.8 °F - 37.4 °F 81% 29.51 in 3.0 mi Calm Calm - N/A   Haze
6:34 AM 42.8 °F - 37.4 °F 81% 29.51 in 3.0 mi Calm Calm - N/A   Haze
6:53 AM 42.8 °F - 37.4 °F 81% 29.50 in 2.0 mi Calm Calm - N/A   Haze
7:13 AM 42.8 °F 41.1 °F 37.4 °F 81% 29.51 in 3.0 mi South 3.5 mph - N/A   Haze
7:34 AM 42.8 °F 41.1 °F 37.4 °F 81% 29.52 in 2.0 mi SE 3.5 mph - N/A   Haze
7:53 AM 42.8 °F - 37.4 °F 81% 29.51 in 0.5 mi Calm Calm - N/A   Haze
8:13 AM 42.8 °F 41.1 °F 37.4 °F 81% 29.49 in 0.5 mi North 3.5 mph - N/A   Haze
8:33 AM 42.8 °F - 37.4 °F 81% 29.50 in 0.8 mi Calm Calm - N/A   Haze
8:53 AM 42.8 °F - 37.4 °F 81% 29.48 in 0.2 mi Calm Calm - N/A   Haze
9:13 AM 42.8 °F - 37.4 °F 81% 29.49 in 0.5 mi Calm Calm - N/A   Haze
9:33 AM 42.8 °F - 37.4 °F 81% 29.48 in 2.5 mi Calm Calm - N/A   Haze
9:53 AM 42.8 °F - 37.4 °F 81% 29.47 in 3.0 mi Calm Calm - N/A   Haze
10:13 AM 42.8 °F - 37.4 °F 81% 29.46 in 4.0 mi Calm Calm - N/A   Haze
10:33 AM 42.8 °F - 37.4 °F 81% 29.45 in 7.0 mi Calm Calm - N/A   Overcast
10:53 AM 42.8 °F 41.1 °F 37.4 °F 81% 29.44 in 10.0 mi NNE 3.5 mph - N/A   Overcast
11:13 AM 44.6 °F - 39.2 °F 81% 29.44 in 10.0 mi Calm Calm - N/A   Overcast
11:33 AM 44.6 °F - 39.2 °F 81% 29.44 in 10.0 mi Calm Calm - N/A   Overcast
11:53 AM 44.6 °F - 39.2 °F 81% 29.43 in 1.8 mi Calm Calm - N/A   Drizzle
12:14 PM 44.6 °F - 39.2 °F 81% 29.42 in 1.5 mi Calm Calm - N/A   Light Drizzle
12:33 PM 44.6 °F - 39.2 °F 81% 29.41 in 1.8 mi Calm Calm - N/A   Light Drizzle
12:53 PM 44.6 °F - 39.2 °F 81% 29.40 in 1.8 mi Calm Calm - N/A   Light Drizzle
1:14 PM 44.6 °F - 39.2 °F 81% 29.38 in 2.5 mi Calm Calm - 0.01 in   Light Drizzle
1:33 PM 44.6 °F - 39.2 °F 81% 29.37 in 2.5 mi Calm Calm - 0.01 in   Drizzle
1:53 PM 44.6 °F - 39.2 °F 81% 29.36 in 4.0 mi Calm Calm - 0.01 in   Light Drizzle
2:14 PM 44.6 °F - 39.2 °F 81% 29.36 in 10.0 mi Calm Calm - N/A   Overcast
2:33 PM 44.6 °F - 41.0 °F 87% 29.35 in 10.0 mi Calm Calm - N/A   Overcast
2:53 PM 46.4 °F - 41.0 °F 81% 29.35 in 10.0 mi Calm Calm - N/A   Overcast
3:13 PM 46.4 °F - 41.0 °F 81% 29.34 in 10.0 mi Calm Calm - N/A   Overcast
3:33 PM 46.4 °F - 41.0 °F 81% 29.33 in 10.0 mi Calm Calm - N/A   Overcast
3:53 PM 46.4 °F - 41.0 °F 81% 29.32 in 10.0 mi Calm Calm - N/A   Overcast
4:13 PM 46.4 °F - 41.0 °F 81% 29.32 in 10.0 mi Calm Calm - N/A   Overcast
4:33 PM 46.4 °F - 41.0 °F 81% 29.31 in 10.0 mi Calm Calm - N/A   Overcast
4:53 PM 46.4 °F - 41.0 °F 81% 29.31 in 10.0 mi Calm Calm - N/A   Overcast
5:13 PM 46.4 °F - 41.0 °F 81% 29.30 in 10.0 mi Calm Calm - N/A   Overcast
5:33 PM 46.4 °F - 41.0 °F 81% 29.31 in 10.0 mi Calm Calm - N/A   Overcast
5:53 PM 44.6 °F - 41.0 °F 87% 29.31 in 10.0 mi Calm Calm - N/A   Overcast
6:13 PM 44.6 °F 43.1 °F 39.2 °F 81% 29.31 in 10.0 mi North 3.5 mph - N/A   Overcast
6:33 PM 44.6 °F - 39.2 °F 81% 29.31 in 10.0 mi Calm Calm - N/A   Overcast
6:53 PM 44.6 °F 43.1 °F 39.2 °F 81% 29.32 in 10.0 mi North 3.5 mph - N/A   Light Drizzle
7:13 PM 44.6 °F 40.7 °F 39.2 °F 81% 29.31 in 10.0 mi North 6.9 mph - N/A   Overcast
7:33 PM 42.8 °F 39.3 °F 37.4 °F 81% 29.31 in 10.0 mi North 5.8 mph - N/A   Overcast
7:53 PM 42.8 °F - 37.4 °F 81% 29.31 in 10.0 mi Calm Calm - N/A   Overcast
8:14 PM 42.8 °F 41.1 °F 37.4 °F 81% 29.31 in 10.0 mi North 3.5 mph - N/A   Overcast
8:33 PM 42.8 °F - 37.4 °F 81% 29.31 in 10.0 mi Calm Calm - N/A   Overcast
8:53 PM 42.8 °F - 37.4 °F 81% 29.31 in 10.0 mi Calm Calm - N/A   Overcast
9:14 PM 42.8 °F - 37.4 °F 81% 29.31 in 10.0 mi Calm Calm - N/A   Overcast
9:33 PM 42.8 °F 40.1 °F 37.4 °F 81% 29.31 in 10.0 mi NNW 4.6 mph - N/A   Drizzle
9:53 PM 42.8 °F 40.1 °F 37.4 °F 81% 29.31 in 10.0 mi NNW 4.6 mph - 0.01 in   Overcast
10:14 PM 41.0 °F 38.0 °F 37.4 °F 87% 29.31 in 10.0 mi NNW 4.6 mph - N/A   Overcast
10:33 PM 41.0 °F - 35.6 °F 81% 29.31 in 10.0 mi Calm Calm - N/A   Overcast
10:53 PM 41.0 °F 38.0 °F 35.6 °F 81% 29.31 in 10.0 mi NW 4.6 mph - N/A   Overcast
11:14 PM 41.0 °F 37.1 °F 35.6 °F 81% 29.31 in 10.0 mi NNW 5.8 mph - N/A   Overcast
11:33 PM 41.0 °F 35.8 °F 35.6 °F 81% 29.30 in 10.0 mi NW 8.1 mph 16.1 mph N/A   Overcast
11:54 PM 39.2 °F 32.0 °F 35.6 °F 87% 29.30 in 10.0 mi NW 11.5 mph 19.6 mph N/A   Overcast